Regional Weather Roundup
Issued by NWS

Home | Current Version | Previous Version | Graphics & Text | Print | Product List | Glossary On
Versions: 1 2 3 4 5 6 7 8 9 10 11 12 13 14 15 16 17 18 19 20 21 22 23 24 25 26 27 28 29 30 31 32 33 34 35 36 37 38 39 40 41 42 43 44 45 46 47 48 49 50
000
ASUS43 KFSD 210310
RWRSD

WEATHER ROUNDUP FOR SOUTH DAKOTA
NATIONAL WEATHER SERVICE SIOUX FALLS SD
1000 PM CDT WED SEP 20 2017

NOTE: "FAIR" INDICATES FEW OR NO CLOUDS BELOW 12,000 FEET WITH NO
SIGNIFICANT WEATHER AND/OR OBSTRUCTIONS TO VISIBILITY.


SDZ001>005-009-010-012>017-210400-
NORTHWEST AND NORTH CENTRAL SOUTH DAKOTA

CITY           SKY/WX    TMP DP  RH WIND       PRES   REMARKS
BUFFALO          N/A     60  31  33 SE7       29.66S
FAITH            N/A     61  29  29 SE12      29.77R
MOBRIDGE       CLEAR     60  37  42 E13       29.76R
$$

SDZ012>016-024>037-041>051-057-063-072>074-210400-
SOUTHWEST AND SOUTH CENTRAL SOUTH DAKOTA

CITY           SKY/WX    TMP DP  RH WIND       PRES   REMARKS
RAPID CTY ARPT NOT AVBL
PIERRE         CLEAR     60  35  39 SE8       29.78R
CUSTER         LGT RAIN  54  29  38 MISG      29.89R
ELLSWORTH AFB  CLOUDY    62  34  34 CALM      29.77S
PHILIP         CLEAR     59  34  39 NE3       29.77R
PINE RIDGE     CLEAR     68  34  28 S16G28    29.81R
SPEARFISH      FAIR      55  34  44 S6        29.79S
WINNER         FAIR      63  40  42 S13       29.83S
$$

SDZ004>011-016>023-039-040-210400-
NORTHEAST SOUTH DAKOTA

CITY           SKY/WX    TMP DP  RH WIND       PRES   REMARKS
ABERDEEN       CLEAR     56  44  64 SE10      29.82R
WATERTOWN      CLEAR     56  45  66 SE6       29.88R
BROOKINGS      CLEAR     57  47  69 SE9       29.91S
SISSETON         N/A     52  46  80 SE3       29.87R
$$

SDZ017-020-022-023-036>040-048>070-210400-
SOUTHEAST SOUTH DAKOTA

CITY           SKY/WX    TMP DP  RH WIND       PRES   REMARKS
SIOUX FALLS    CLEAR     54  50  86 CALM      29.91R
HURON          CLEAR     61  46  57 SE12      29.84S
CHAMBERLAIN    CLEAR     59  46  61 E9        29.84R
MITCHELL       CLEAR     60  48  64 S9        29.87S
YANKTON        CLEAR     61  50  67 SE5       29.89S
$$

ABBREVIATIONS USED IN REMARKS
   TC - TEMPERATURE IN CELSIUS
  WCI - WIND CHILL INDEX
   HX - HEAT INDEX
  VSB - VISIBILITY





USA.gov is the U.S. government's official web portal to all federal, state and local government web resources and services.